TimeCST,TemperatureF,Dew PointF,Humidity,Sea Level PressureIn,VisibilityMPH,Wind Direction,Wind SpeedMPH,Gust SpeedMPH,PrecipitationIn,Events,Conditions,WindDirDegrees,DateUTC
12:53 AM,33.1,30.9,92,30.49,10.0,North,3.5,-,N/A,,Clear,350,2012-11-13 06:53:00
1:53 AM,34.0,33.1,96,30.50,10.0,Calm,Calm,-,N/A,,Clear,0,2012-11-13 07:53:00
2:53 AM,33.1,30.9,92,30.50,10.0,Calm,Calm,-,N/A,,Clear,0,2012-11-13 08:53:00
3:53 AM,34.0,30.9,89,30.51,10.0,Calm,Calm,-,N/A,,Clear,0,2012-11-13 09:53:00
4:53 AM,32.0,30.9,96,30.52,10.0,North,3.5,-,N/A,,Clear,10,2012-11-13 10:53:00
5:53 AM,30.9,28.9,92,30.53,10.0,North,3.5,-,N/A,,Clear,350,2012-11-13 11:53:00
6:53 AM,33.1,32.0,96,30.55,10.0,Calm,Calm,-,N/A,,Clear,0,2012-11-13 12:53:00
7:53 AM,37.9,35.1,89,30.55,10.0,Calm,Calm,-,N/A,,Clear,0,2012-11-13 13:53:00
8:53 AM,45.0,35.1,68,30.55,10.0,NE,9.2,-,N/A,,Clear,40,2012-11-13 14:53:00
9:53 AM,50.0,32.0,50,30.55,10.0,NE,10.4,18.4,N/A,,Clear,50,2012-11-13 15:53:00
10:53 AM,51.1,28.9,43,30.53,10.0,NE,12.7,-,N/A,,Clear,40,2012-11-13 16:53:00
11:53 AM,53.1,28.9,40,30.50,10.0,NE,15.0,-,N/A,,Clear,50,2012-11-13 17:53:00
12:53 PM,54.0,30.0,40,30.46,10.0,ENE,12.7,-,N/A,,Clear,60,2012-11-13 18:53:00
1:53 PM,54.0,30.0,40,30.43,10.0,NNE,12.7,-,N/A,,Clear,30,2012-11-13 19:53:00
2:53 PM,54.0,30.0,40,30.42,10.0,NNE,11.5,-,N/A,,Clear,30,2012-11-13 20:53:00
3:53 PM,52.0,30.0,43,30.41,10.0,NNE,10.4,-,N/A,,Clear,30,2012-11-13 21:53:00
4:53 PM,48.0,30.9,52,30.41,10.0,NNE,8.1,-,N/A,,Clear,30,2012-11-13 22:53:00
5:53 PM,44.1,33.1,65,30.41,10.0,NNE,5.8,-,N/A,,Clear,20,2012-11-13 23:53:00
6:53 PM,42.1,34.0,73,30.42,10.0,North,5.8,-,N/A,,Clear,10,2012-11-14 00:53:00
7:53 PM,42.1,32.0,67,30.43,10.0,North,4.6,-,N/A,,Clear,360,2012-11-14 01:53:00
8:53 PM,39.9,33.1,77,30.43,10.0,North,4.6,-,N/A,,Clear,360,2012-11-14 02:53:00
9:53 PM,39.9,34.0,79,30.44,10.0,North,6.9,-,N/A,,Clear,360,2012-11-14 03:53:00
10:53 PM,39.0,33.1,79,30.43,10.0,North,5.8,-,N/A,,Clear,360,2012-11-14 04:53:00
11:53 PM,39.9,33.1,77,30.42,10.0,North,6.9,-,N/A,,Clear,360,2012-11-14 05:53:00